19.05.2024;07:00;4
19.05.2024;06:00;4
19.05.2024;05:00;4
19.05.2024;04:00;4
19.05.2024;03:00;3
19.05.2024;02:00;3
19.05.2024;01:00;3
19.05.2024;00:00;3
18.05.2024;23:00;2
18.05.2024;22:00;1
18.05.2024;21:00;1
18.05.2024;20:00;1
18.05.2024;19:00;1
18.05.2024;18:00;1
18.05.2024;17:00;1
18.05.2024;16:00;1
18.05.2024;15:00;1
18.05.2024;14:00;1
18.05.2024;13:00;1
18.05.2024;12:00;1
18.05.2024;11:00;1
18.05.2024;10:00;1
18.05.2024;09:00;1
18.05.2024;08:00;1
18.05.2024;07:00;2
18.05.2024;06:00;2
18.05.2024;05:00;2
18.05.2024;04:00;3
18.05.2024;03:00;3
18.05.2024;02:00;4
18.05.2024;01:00;4
18.05.2024;00:00;5
17.05.2024;23:00;6
17.05.2024;22:00;6
17.05.2024;21:00;7
17.05.2024;20:00;7
17.05.2024;19:00;7
17.05.2024;18:00;8
17.05.2024;17:00;8
17.05.2024;16:00;8
17.05.2024;15:00;8
17.05.2024;14:00;9
17.05.2024;13:00;9
17.05.2024;12:00;10
17.05.2024;11:00;10
17.05.2024;10:00;11
17.05.2024;09:00;12
17.05.2024;08:00;12
